This is the latest recevied weather packets stored in our database for station/object I1SXT-13. If no packets are shown the sender has not sent any weather packets the latest 10 day(s).
| Time | Temp. | Humidity | Pressure | Rain* | Wind** | Luminosity | Snow |
|---|---|---|---|---|---|---|---|
| 1777445664 | 13.89° C | 69% | 1017.2 hPa | 0 mm | - | - | - |
| 1777445367 | 13.89° C | 70% | 1016.2 hPa | 0 mm | - | - | - |
| 1777444765 | 13.89° C | 70% | 1016.5 hPa | 0 mm | - | - | - |
| 1777444468 | 13.33° C | 71% | 1015.8 hPa | 0 mm | - | - | - |
| 1777444164 | 13.33° C | 70% | 1016.3 hPa | 0 mm | - | - | - |
| 1777443867 | 13.33° C | 71% | 1016.5 hPa | 0 mm | - | - | - |
| 1777443570 | 12.78° C | 73% | 1016.4 hPa | 0 mm | - | - | - |
| 1777443266 | 12.22° C | 74% | 1016.7 hPa | 0 mm | - | - | - |
| 1777442968 | 12.22° C | 74% | 1016.5 hPa | 0 mm | - | - | - |
| 1777442664 | 12.22° C | 74% | 1016.2 hPa | 0 mm | - | - | - |
| 1777442367 | 12.22° C | 74% | 1016.5 hPa | 0 mm | - | - | - |
| 1777441165 | 12.78° C | 64% | 1016.4 hPa | 0 mm | - | - | - |
| 1777440266 | 12.78° C | 63% | 1016.6 hPa | 0 mm | - | - | - |
| 1777439969 | 12.78° C | 62% | 1016.1 hPa | 0 mm | - | - | - |
| 1777439665 | 12.78° C | 62% | 1015.2 hPa | 0 mm | - | - | - |
| 1777439368 | 12.78° C | 63% | 1016 hPa | 0 mm | - | - | - |
| 1777439064 | 12.78° C | 63% | 1016.3 hPa | 0 mm | - | - | - |
| 1777438469 | 12.22° C | 64% | 1015.9 hPa | 0 mm | - | - | - |
| 1777438165 | 12.22° C | 65% | 1015.6 hPa | 0 mm | - | - | - |
| 1777437868 | 12.22° C | 67% | 1016.1 hPa | 0 mm | - | - | - |
| 1777437267 | 12.78° C | 62% | 1015.5 hPa | 0 mm | - | - | - |
| 1777436970 | 12.78° C | 63% | 1015.3 hPa | 0 mm | - | - | - |
| 1777436666 | 12.78° C | 62% | 1016.3 hPa | 0 mm | - | - | - |
| 1777436064 | 12.78° C | 63% | 1015 hPa | 0 mm | - | - | - |
| 1777435767 | 12.78° C | 64% | 1015.2 hPa | 0 mm | - | - | - |
* Rain since midnight (hover to see other rain measurements)
** Current wind speed in m/s (hover to see current wind gust speed)